TimeAKST,TemperatureF,Dew PointF,Humidity,Sea Level PressureIn,VisibilityMPH,Wind Direction,Wind SpeedMPH,Gust SpeedMPH,PrecipitationIn,Events,Conditions,WindDirDegrees,DateUTC
12:55 AM,23.0,20.8,91,29.88,10.0,NNE,24.2,-,N/A,,Mostly Cloudy,30,2012-11-11 09:55:00
1:55 AM,24.4,21.2,87,29.88,10.0,NE,21.9,-,N/A,,Mostly Cloudy,40,2012-11-11 10:55:00
2:55 AM,24.6,22.5,91,29.88,10.0,NNE,24.2,-,N/A,,Mostly Cloudy,30,2012-11-11 11:55:00
3:55 AM,23.9,21.7,91,29.88,10.0,NNE,19.6,-,N/A,,Mostly Cloudy,20,2012-11-11 12:55:00
4:55 AM,23.4,21.2,91,29.88,10.0,NNE,19.6,-,N/A,,Mostly Cloudy,30,2012-11-11 13:55:00
5:55 AM,21.2,19.6,93,29.88,10.0,NNE,19.6,-,N/A,,Partly Cloudy,30,2012-11-11 14:55:00
6:55 AM,20.3,18.7,93,29.89,10.0,NNE,20.7,-,N/A,,Scattered Clouds,30,2012-11-11 15:55:00
7:55 AM,19.6,18.1,94,29.90,10.0,NNE,20.7,-,N/A,,Partly Cloudy,30,2012-11-11 16:55:00
8:55 AM,18.7,17.1,93,29.91,10.0,NNE,24.2,-,N/A,,Clear,30,2012-11-11 17:55:00
9:55 AM,17.2,16.5,97,29.92,10.0,NE,20.7,-,N/A,,Partly Cloudy,40,2012-11-11 18:55:00
10:55 AM,16.9,13.5,86,29.93,10.0,NE,17.3,-,N/A,,Clear,40,2012-11-11 19:55:00
11:55 AM,19.6,7.5,60,29.94,10.0,NNE,21.9,-,N/A,,Clear,30,2012-11-11 20:55:00
12:55 PM,17.2,10.8,76,29.95,10.0,NNE,19.6,-,N/A,,Clear,30,2012-11-11 21:55:00
1:55 PM,17.2,9.7,72,29.96,10.0,NNE,19.6,-,N/A,,Clear,30,2012-11-11 22:55:00
2:55 PM,17.2,9.5,72,29.96,10.0,NNE,20.7,-,N/A,,Clear,30,2012-11-11 23:55:00
4:55 PM,16.5,9.1,73,29.96,10.0,NNE,24.2,-,N/A,,Clear,30,2012-11-12 01:55:00
5:55 PM,16.9,8.6,70,29.97,10.0,NNE,21.9,-,N/A,,Clear,30,2012-11-12 02:55:00
6:55 PM,16.3,7.7,69,29.98,10.0,NNE,19.6,-,N/A,,Partly Cloudy,30,2012-11-12 03:55:00
7:55 PM,10.0,7.9,91,30.01,10.0,NE,15.0,-,N/A,,Partly Cloudy,40,2012-11-12 04:55:00
8:55 PM,11.1,7.9,87,30.02,10.0,NE,12.7,-,N/A,,Partly Cloudy,40,2012-11-12 05:55:00
9:55 PM,10.6,7.3,87,30.04,10.0,NE,12.7,-,N/A,,Clear,40,2012-11-12 06:55:00
10:55 PM,16.5,9.5,74,30.06,10.0,North,3.5,-,N/A,,Clear,10,2012-11-12 07:55:00
11:55 PM,19.8,10.4,67,30.07,10.0,Variable,1.2,-,N/A,,Partly Cloudy,0,2012-11-12 08:55:00